User: anonymous   Login
Location: Oshawa
(43.9000°N, 78.8670°W)
Time: 16:07:33
(UTC-04:00)
Language:

Cosmos 1408 Rocket - Orbit

View from above orbital plane
View from above orbital plane
View from above satellite
View from above satellite

Ground track
Ground track

The orbit data is extracted from the following two-line orbital elements,

1 13553U 82092B   16148.35752880  .00000106  00000-0  97912-5 0  9996
2 13553  82.5704 233.5248 0020137 237.4745 191.5843 14.84056259819819
Epoch (UTC): 27 May 2016 08:34:50
Eccentricity: 0.0020137
inclination: 82.5704°
perigee height: 602 km
apogee height: 630 km
right ascension of ascending node: 233.5248°
argument of perigee: 237.4745°
revolutions per day: 14.84056259
mean anomaly at epoch: 191.5843°
orbit number at epoch: 81981

The dashed part of the orbit path shows where the satellite is in the earth's shadow,  

DLR